Location: Newark
(9.4667°S, 159.8167°E)
Time: 05:50:18
(UTC+00:00)

Courier 1B Rocket - Pass Details

Date: 28 November 2019
Orbit: 921 x 1202 km, 28.2° (Epoch: 14 December)

Event Time Altitude Azimuth Distance (km) Brightness Sun altitude
Rises 07:56:38 0° 321° (NW) 3,934 8.4 -7.6°
Reaches altitude 10° 07:59:41 10° 331° (NNW) 3,017 7.7 -8.3°
Maximum altitude 08:06:16 32° 32° (NNE) 1,880 6.1 -9.7°
Drops below altitude 10° 08:13:03 10° 92° (E) 3,128 7.1 -11.3°
Enters shadow 08:13:10 10° 92° (E) 3,163 7.1 -11.3°
Sets 08:16:15 0° 101° (E) 4,098 - -12.0°
